Date String (YYYY-MM-DD hh:mm:ss) UTC,Instrument flags,Ambient pressure (hPa),Sample flow (lpm),Bypass flow (lpm),Sample temperature (°C),Ambient temperature (°C),ASC tube jacket temperature (°C),LED temperature (°C),Box temperature (°C),Sample RH (%),Span deviation,Mass concentration (μg/m³),Mass concentration (μg/m³),Mass concentration (μg/m³)
DateTimeUTC,F1_M11,P_M11,Q1_M11,Q2_M11,T1_M11,T2_M11,T3_M11,T4_M11,T5_M11,U1_M11,ZSPAN_M11,X0_M11,X2_M11,X1_M11
2022-11-29 06:00:00,,0812.3,5.00,0.00,22.5,21.5,00.0,31.4,24.3,13.4,0000.0,0007.50,0004.37,0004.26
2022-11-29 06:01:00,,0812.3,5.01,0.00,22.5,21.3,00.0,31.4,24.3,13.4,0000.0,0007.43,0004.33,0004.23
2022-11-29 06:02:00,,0812.3,5.01,0.00,22.5,21.2,00.0,31.4,24.2,13.4,0000.0,0007.42,0004.31,0004.21
2022-11-29 06:03:00,,0812.3,5.01,0.00,22.4,21.1,00.0,31.4,24.2,13.4,0000.0,0007.44,0004.28,0004.19
2022-11-29 06:04:00,,0812.3,5.00,0.00,22.4,21.0,00.0,31.4,24.2,13.4,0000.0,0007.02,0004.28,0004.18
2022-11-29 06:05:00,,0812.3,5.00,0.00,22.4,20.9,00.0,31.4,24.2,13.5,0000.0,0006.37,0004.28,0004.18
2022-11-29 06:06:00,,0812.4,5.00,0.00,22.4,20.9,00.0,31.4,24.2,13.5,0000.0,0006.31,0004.26,0004.17
2022-11-29 06:07:00,,0812.4,5.00,0.00,22.4,21.0,00.0,31.4,24.2,13.5,0000.0,0004.74,0004.27,0004.17
2022-11-29 06:08:00,,0812.4,5.01,0.00,22.4,21.8,00.0,31.3,24.3,13.5,0000.0,0004.79,0004.28,0004.18
2022-11-29 06:09:00,,0812.3,5.00,0.00,22.6,22.6,00.0,31.3,24.6,13.4,0000.0,0004.96,0004.30,0004.18
2022-11-29 06:10:00,,0812.3,4.99,0.00,22.6,22.4,00.0,31.4,24.6,13.4,0000.0,0004.96,0004.28,0004.16
2022-11-29 06:11:00,,0812.4,5.00,0.00,22.6,22.1,00.0,31.4,24.5,13.4,0000.0,0004.98,0004.25,0004.12
2022-11-29 06:12:00,,0812.3,5.00,0.00,22.6,21.7,00.0,31.5,24.4,13.4,0000.0,0005.02,0004.20,0004.07
2022-11-29 06:13:00,,0812.4,5.01,0.00,22.5,21.5,00.0,31.5,24.3,13.3,0000.0,0005.43,0004.14,0004.01
2022-11-29 06:14:00,,0812.4,5.01,0.00,22.5,21.2,00.0,31.5,24.3,13.3,0000.0,0005.34,0004.05,0003.91
2022-11-29 06:15:00,,0812.4,4.99,0.00,22.5,21.1,00.0,31.5,24.2,13.3,0000.0,0005.29,0003.95,0003.81
2022-11-29 06:16:00,,0812.4,4.99,0.00,22.4,20.9,00.0,31.5,24.2,13.3,0000.0,0005.10,0003.82,0003.70
2022-11-29 06:17:00,,0812.3,5.00,0.00,22.4,20.8,00.0,31.4,24.1,13.3,0000.0,0004.99,0003.72,0003.59
2022-11-29 06:18:00,,0812.3,5.00,0.00,22.4,20.7,00.0,31.4,24.1,13.3,0000.0,0004.84,0003.61,0003.48
2022-11-29 06:19:00,,0812.4,5.01,0.00,22.4,21.0,00.0,31.4,24.1,13.2,0000.0,0004.61,0003.47,0003.35
2022-11-29 06:20:00,,0812.4,5.01,0.00,22.4,21.9,00.0,31.3,24.3,13.1,0000.0,0004.32,0003.33,0003.22
2022-11-29 06:21:00,,0812.4,4.99,0.00,22.5,22.5,00.0,31.3,24.5,13.0,0000.0,0004.06,0003.19,0003.07
2022-11-29 06:22:00,,0812.4,4.99,0.00,22.6,22.2,00.0,31.4,24.5,13.0,0000.0,0003.94,0003.09,0002.90
2022-11-29 06:23:00,,0812.4,5.00,0.00,22.6,21.8,00.0,31.4,24.4,13.0,0000.0,0003.79,0002.94,0002.75
2022-11-29 06:24:00,,0812.4,5.00,0.00,22.5,21.6,00.0,31.4,24.3,13.0,0000.0,0003.51,0002.83,0002.63
2022-11-29 06:25:00,,0812.3,5.00,0.00,22.5,21.3,00.0,31.5,24.2,13.0,0000.0,0003.72,0002.76,0002.54
2022-11-29 06:26:00,,0812.3,5.00,0.00,22.5,21.1,00.0,31.5,24.2,12.9,0000.0,0003.56,0002.70,0002.47
2022-11-29 06:27:00,,0812.3,5.01,0.00,22.4,20.9,00.0,31.4,24.1,12.9,0000.0,0003.43,0002.61,0002.39
2022-11-29 06:28:00,,0812.4,5.00,0.00,22.4,20.7,00.0,31.4,24.1,12.9,0000.0,0003.30,0002.49,0002.28
2022-11-29 06:29:00,,0812.4,5.00,0.00,22.3,20.8,00.0,31.4,24.1,12.9,0000.0,0003.18,0002.37,0002.17
2022-11-29 06:30:00,,0812.3,5.01,0.00,22.4,21.7,00.0,31.3,24.3,12.8,0000.0,0003.40,0002.35,0002.08
2022-11-29 06:31:00,,0812.4,4.99,0.00,22.5,22.4,00.0,31.3,24.5,12.7,0000.0,0003.89,0002.33,0001.97
2022-11-29 06:32:00,,0812.4,4.99,0.00,22.6,22.1,00.0,31.4,24.5,12.7,0000.0,0003.82,0002.24,0001.87
2022-11-29 06:33:00,,0812.4,5.01,0.00,22.5,21.8,00.0,31.4,24.4,12.7,0000.0,0003.78,0002.15,0001.77
2022-11-29 06:34:00,,0812.3,5.00,0.00,22.5,21.5,00.0,31.4,24.3,12.7,0000.0,0003.79,0002.07,0001.70
2022-11-29 06:35:00,,0812.3,5.00,0.00,22.5,21.2,00.0,31.4,24.2,12.6,0000.0,0003.76,0002.02,0001.64
2022-11-29 06:36:00,,0812.3,5.00,0.00,22.4,21.0,00.0,31.4,24.2,12.6,0000.0,0003.21,0001.99,0001.59
2022-11-29 06:37:00,,0812.3,5.00,0.00,22.4,20.9,00.0,31.4,24.1,12.6,0000.0,0003.27,0001.95,0001.53
2022-11-29 06:38:00,,0812.3,5.00,0.00,22.3,20.7,00.0,31.4,24.0,12.6,0000.0,0003.56,0001.95,0001.49
2022-11-29 06:39:00,,0812.3,5.00,0.00,22.3,20.7,00.0,31.4,24.0,12.6,0000.0,0003.65,0001.96,0001.48
2022-11-29 06:40:00,,0812.3,5.00,0.00,22.3,21.1,00.0,31.3,24.1,12.6,0000.0,0003.67,0001.97,0001.47
2022-11-29 06:41:00,,0812.3,5.00,0.00,22.4,22.1,00.0,31.3,24.3,12.6,0000.0,0003.81,0001.96,0001.47
2022-11-29 06:42:00,,0812.3,4.99,0.00,22.5,22.6,00.0,31.3,24.5,12.5,0000.0,0003.35,0001.91,0001.48
2022-11-29 06:43:00,,0812.3,4.99,0.00,22.6,22.2,00.0,31.4,24.5,12.4,0000.0,0003.37,0001.93,0001.49
2022-11-29 06:44:00,,0812.3,5.00,0.00,22.5,21.8,00.0,31.4,24.3,12.4,0000.0,0003.35,0001.95,0001.51
2022-11-29 06:45:00,,0812.2,5.00,0.00,22.5,21.4,00.0,31.4,24.2,12.4,0000.0,0003.20,0001.93,0001.50
2022-11-29 06:46:00,,0812.2,4.99,0.00,22.4,21.2,00.0,31.4,24.2,12.4,0000.0,0003.26,0001.90,0001.48
2022-11-29 06:47:00,,0812.2,5.00,0.00,22.4,21.0,00.0,31.4,24.1,12.4,0000.0,0003.22,0001.84,0001.45
2022-11-29 06:48:00,,0812.3,5.00,0.00,22.4,20.8,00.0,31.4,24.1,12.5,0000.0,0003.09,0001.80,0001.43
2022-11-29 06:49:00,,0812.3,5.00,0.00,22.3,20.7,00.0,31.4,24.0,12.5,0000.0,0002.74,0001.74,0001.40
2022-11-29 06:50:00,,0812.3,5.00,0.00,22.3,20.6,00.0,31.4,24.0,12.5,0000.0,0002.61,0001.69,0001.37
2022-11-29 06:51:00,,0812.3,5.00,0.00,22.3,20.6,00.0,31.4,24.0,12.5,0000.0,0004.10,0001.67,0001.35
2022-11-29 06:52:00,,0812.3,5.02,0.00,22.3,21.3,00.0,31.3,24.1,12.5,0000.0,0004.07,0001.63,0001.34
2022-11-29 06:53:00,,0812.2,5.00,0.00,22.4,22.2,00.0,31.3,24.3,12.4,0000.0,0003.85,0001.57,0001.32
2022-11-29 06:54:00,,0812.2,4.99,0.00,22.5,22.2,00.0,31.3,24.4,12.4,0000.0,0003.81,0001.53,0001.28
2022-11-29 06:55:00,,0812.3,5.00,0.00,22.5,21.8,00.0,31.4,24.4,12.4,0000.0,0003.92,0001.49,0001.24
2022-11-29 06:56:00,,0812.3,5.00,0.00,22.5,21.6,00.0,31.4,24.3,12.4,0000.0,0004.00,0001.50,0001.23
2022-11-29 06:57:00,,0812.4,5.01,0.00,22.4,21.3,00.0,31.4,24.2,12.4,0000.0,0004.17,0001.49,0001.21
2022-11-29 06:58:00,,0812.3,5.00,0.00,22.4,21.1,00.0,31.4,24.2,12.4,0000.0,0004.32,0001.51,0001.21
2022-11-29 06:59:00,,0812.3,4.99,0.00,22.4,21.0,00.0,31.4,24.1,12.4,0000.0,0004.31,0001.51,0001.21
